Brasilsat B3

operational
NORAD ID: 25152 Int'l Des: 1998-006 Owner: EMBRM Country: BR
HEOCIRCULAR

About Brasilsat B3

Description loading...

Live Position

Loading 3D Globe...

Upcoming Passes

Altitude History

Altitude vs Time

uPlot chart will show altitude changes over time

Two-Line Element Set

1 25152U 98006A 26063.06223390 .00000053 00000-0 00000+0 0 9997
2 25152 10.5789 48.5586 0002133 267.4055 110.3431 0.99214865 42172
Epoch: Mar 4, 2026 • Age: 18 hours

Current Status

Altitude 36078.0 km
Velocity 3.06 km/s
Sub-Earth Point -10.57°S, 120.61°W
Launch Date Feb 4, 1998
Age 28 years
Type other

Technical Details

Classification Payload
Mass 1780.00 kg
Dry Mass 856.00 kg
Total Mass 1780.00 kg
Length 8.30 m
Diameter 3.60 m
Span 8.30 m
Shape Cyl
Manufacturer HSES
Bus Type HS-376W
Phase Status Unknown Active Status
Owner/State EMBRM/BR

Large Constellations

Loading constellations...